Bowling Green, KY

1:18 AM CDT on May 26, 2017 (GMT -0500)
Bowling Green-Warren County Regional

Weather History for KBWG - November, 2011

Change the Weather History Date:

Friday, November 4, 2011

  Actual Average Record
Temperature  
Mean Temperature 46 °F 53 °F  
Max Temperature 56 °F 64 °F 80 °F (1956)
Min Temperature 36 °F 41 °F 14 °F (1879)
Degree Days  
Heating Degree Days 19 13  
Month to date heating degree days 59 49  
Since 1 July heating degree days 304 312  
Cooling Degree Days 0 0  
Month to date cooling degree days 0 0  
Year to date cooling degree days 1803 1488  
Moisture  
Dew Point 42 °F    
Average Humidity 80    
Maximum Humidity 93    
Minimum Humidity 66    
Precipitation  
Precipitation T in 0.13 in 1.95 in (1936)
Month to date precipitation 0.29 0.52  
Year to date precipitation 50.54 41.39  
Snow  
Snow 0.00 in 0.00 in 2.00 in (1936)
Month to date snowfall 0.0 0.0  
Since 1 July snowfall 0.0 T  
Since 1 September snowfall 0.0 T  
Snow Depth 0.00 in    
Sea Level Pressure  
Sea Level Pressure 30.14 in    
Wind  
Wind Speed 3 mph (NW)    
Max Wind Speed 12 mph    
Max Gust Speed 15 mph    
Visibility 5 miles    
Events Fog    
T = Trace of Precipitation, MM = Missing Value Source: NWS Daily Summary

Daily Weather History Graph

Daily Weather History Graph

Search for Another Location

Airport or City:

Trip Planner

Search our weather history database for the weather conditions in past years. The results will help you decide how hot, cold, wet, or windy it might be!

Date:

Astronomy

Nov. 04, 2011 Rise Set
Actual Time 7:12 AM CDT 5:45 PM CDT
Civil Twilight 6:45 AM CDT 6:12 PM CDT
Nautical Twilight 6:14 AM CDT 6:43 PM CDT
Astronomical Twilight 5:44 AM CDT 7:13 PM CDT
Moon 2:29 PM CDT (11/4) 1:32 AM CDT (11/4)
Length of Visible Light 11h 27m
Length of Day
10h 33m
Waxing Gibbous, 69% of the Moon is Illuminated
Nov 4
Waxing Gibbous
Nov 10
Full
Nov 18
Last Quarter
Nov 25
New
Dec 2
First Quarter

Hourly Weather History & Observations

Time (CDT) Temp. Windchill Dew Point Humidity Pressure Visibility Wind Dir Wind Speed Gust Speed Precip Events Conditions
12:45 AM 44.6 °F - 41.0 °F 87% 29.98 in 10.0 mi Calm Calm - N/A   Overcast
12:53 AM 44.1 °F - 41.0 °F 89% 29.98 in 10.0 mi Calm Calm - N/A   Overcast
1:10 AM 44.6 °F 43.1 °F 41.0 °F 87% 29.98 in 10.0 mi West 3.5 mph - N/A   Overcast
1:25 AM 44.6 °F 43.1 °F 41.0 °F 87% 29.99 in 10.0 mi West 3.5 mph - N/A   Overcast
1:46 AM 44.6 °F 43.1 °F 41.0 °F 87% 29.98 in 10.0 mi West 3.5 mph - N/A   Overcast
1:53 AM 44.1 °F 42.5 °F 41.0 °F 89% 29.99 in 10.0 mi West 3.5 mph - N/A   Overcast
2:39 AM 44.6 °F 43.1 °F 42.8 °F 93% 30.00 in 10.0 mi West 3.5 mph - N/A   Overcast
2:53 AM 45.0 °F 42.6 °F 42.1 °F 90% 30.01 in 10.0 mi WNW 4.6 mph - N/A   Overcast
3:06 AM 44.6 °F 41.4 °F 42.8 °F 93% 29.99 in 10.0 mi West 5.8 mph - N/A   Overcast
3:46 AM 44.6 °F 42.2 °F 42.8 °F 93% 29.99 in 7.0 mi West 4.6 mph - N/A   Overcast
3:53 AM 45.0 °F 43.5 °F 42.1 °F 90% 30.00 in 7.0 mi WNW 3.5 mph - N/A   Overcast
4:53 AM 45.0 °F - 43.0 °F 93% 30.04 in 4.0 mi Calm Calm - N/A   Overcast
5:07 AM 44.6 °F 43.1 °F 42.8 °F 93% 30.04 in 2.0 mi NW 3.5 mph - N/A   Overcast
5:46 AM 46.4 °F 45.2 °F 44.6 °F 93% 30.05 in 3.0 mi WNW 3.5 mph - 0.00 in   Overcast
5:53 AM 46.0 °F - 44.1 °F 93% 30.06 in 3.0 mi Calm Calm - 0.00 in   Overcast
6:53 AM 46.9 °F - 44.1 °F 90% 30.07 in 4.0 mi Calm Calm - N/A   Overcast
7:53 AM 48.0 °F - 45.0 °F 89% 30.10 in 4.0 mi Calm Calm - N/A   Overcast
8:53 AM 48.9 °F - 46.0 °F 90% 30.14 in 4.0 mi Calm Calm - N/A   Overcast
9:06 AM 50.0 °F - 46.4 °F 87% 30.15 in 4.0 mi NNW 3.5 mph - N/A   Overcast
9:31 AM 51.8 °F - 48.2 °F 88% 30.15 in 4.0 mi Calm Calm - N/A   Overcast
9:53 AM 51.1 °F - 48.0 °F 89% 30.16 in 4.0 mi NW 4.6 mph - N/A   Overcast
10:21 AM 51.8 °F - 48.2 °F 88% 30.16 in 5.0 mi NW 5.8 mph - N/A   Overcast
10:30 AM 51.8 °F - 48.2 °F 88% 30.16 in 5.0 mi Variable 5.8 mph - N/A   Overcast
10:53 AM 53.1 °F - 48.0 °F 83% 30.18 in 6.0 mi NNW 4.6 mph - N/A   Haze
11:53 AM 55.0 °F - 48.0 °F 77% 30.17 in 8.0 mi NNE 10.4 mph - N/A   Overcast
2:53 PM 55.9 °F - 45.0 °F 67% 30.17 in 10.0 mi Variable 5.8 mph - N/A   Overcast
4:53 PM 54.0 °F - 45.0 °F 72% 30.20 in 9.0 mi NNE 4.6 mph - N/A   Overcast
5:53 PM 53.1 °F - 44.1 °F 71% 30.21 in 9.0 mi NNE 8.1 mph - N/A   Overcast
6:53 PM 51.1 °F - 43.0 °F 74% 30.23 in 10.0 mi NE 5.8 mph - N/A   Overcast
7:15 PM 46.4 °F 44.3 °F 41.0 °F 81% 30.23 in 8.0 mi ENE 4.6 mph - N/A   Scattered Clouds
7:53 PM 46.9 °F - 42.1 °F 83% 30.22 in 8.0 mi Calm Calm - N/A   Clear
8:48 PM 42.8 °F - 39.2 °F 87% 30.22 in 2.5 mi Calm Calm - N/A   Clear
8:53 PM 42.1 °F - 39.0 °F 89% 30.23 in 2.5 mi Calm Calm - N/A   Clear
9:10 PM 42.8 °F - 39.2 °F 87% 30.23 in 1.2 mi Calm Calm - N/A   Clear
9:24 PM 42.8 °F - 39.2 °F 87% 30.23 in 2.0 mi Calm Calm - N/A   Clear
9:30 PM 42.8 °F - 39.2 °F 87% 30.23 in 1.2 mi Calm Calm - N/A   Clear
9:39 PM 42.8 °F - 39.2 °F 87% 30.23 in 0.8 mi Calm Calm - N/A   Clear
9:45 PM 42.8 °F - 39.2 °F 87% 30.23 in 1.5 mi Calm Calm - N/A   Clear
9:53 PM 42.1 °F - 39.0 °F 89% 30.24 in 2.5 mi Calm Calm - N/A   Clear
9:55 PM 42.8 °F - 39.2 °F 87% 30.23 in 1.2 mi Calm Calm - N/A   Clear
10:02 PM 42.8 °F - 39.2 °F 87% 30.24 in 0.5 mi Calm Calm - N/A Fog Fog
10:09 PM 42.8 °F - 39.2 °F 87% 30.24 in 1.0 mi Calm Calm - N/A   Clear
10:23 PM 39.2 °F - 37.4 °F 93% 30.23 in 0.5 mi Calm Calm - N/A Fog Fog
10:45 PM 37.4 °F - 35.6 °F 93% 30.23 in 1.0 mi Calm Calm - N/A   Clear
10:51 PM 37.4 °F - 35.6 °F 93% 30.23 in 0.5 mi Calm Calm - N/A Fog Fog
10:53 PM 37.9 °F - 36.0 °F 93% 30.23 in 0.2 mi Calm Calm - N/A Fog Fog
11:02 PM 37.4 °F - 35.6 °F 93% 30.23 in 0.2 mi Calm Calm - N/A Fog Fog
11:29 PM 37.4 °F - 35.6 °F 93% 30.23 in 0.2 mi Calm Calm - N/A Fog Fog
11:53 PM 36.0 °F - 34.0 °F 93% 30.23 in 0.2 mi Calm Calm - N/A Fog Fog